DW8953 Weather Reports


time (UTC)temp
C
wind
direction
speed
KPH
gust
KPH
rain 1hr
cm
rain 24hr
cm
rain mn
cm
humidity
%
barometer
mb
20260510224603 28 0 0.0 0.0 0.00 0.00 0.00 41 1016.1
20260510223050 29 0 0.0 0.0 0.00 0.00 0.00 46 1016.2
20260510221555 29 0 0.0 0.0 0.00 0.00 0.00 47 1016.1
20260510220057 28 0 0.0 0.0 0.00 0.00 0.00 44 1016.3
20260510214605 28 0 0.0 0.0 0.00 0.00 0.00 48 1016.4
20260510213057 28 0 0.0 0.0 0.00 0.00 0.00 47 1016.6
20260510211556 27 0 0.0 0.0 0.00 0.00 0.00 45 1016.5
20260510210054 27 0 0.0 0.0 0.00 0.00 0.00 50 1016.4
20260510204556 27 0 0.0 0.0 0.00 0.00 0.00 51 1016.4
20260510203050 27 0 0.0 0.0 0.00 0.00 0.00 50 1016.8
20260510201546 27 0 0.0 0.0 0.00 0.00 0.00 52 1016.9
20260510200109 26 0 0.0 0.0 0.00 0.00 0.00 55 1017.1
20260510194603 26 0 0.0 0.0 0.00 0.00 0.00 57 1017.1
20260510193054 26 0 0.0 0.0 0.00 0.00 0.00 53 1017.1
20260510191549 25 0 0.0 0.0 0.00 0.00 0.00 60 1017.2
20260510190058 25 0 0.0 0.0 0.00 0.00 0.00 60 1017.3
20260510184600 25 0 0.0 0.0 0.00 0.00 0.00 60 1017.6
20260510183050 25 0 0.0 0.0 0.00 0.00 0.00 65 1017.6
20260510181559 24 0 0.0 0.0 0.00 0.00 0.00 62 1017.7
20260510180051 24 0 0.0 0.0 0.00 0.00 0.00 63 1017.9
20260510174554 23 0 0.0 0.0 0.00 0.00 0.00 66 1018.1
20260510173054 23 0 0.0 0.0 0.00 0.00 0.00 67 1018.2
20260510171553 23 0 0.0 0.0 0.00 0.00 0.00 67 1018.3
20260510170055 23 0 0.0 0.0 0.00 0.00 0.00 68 1018.1
20260510164556 23 0 0.0 0.0 0.00 0.00 0.00 65 1018.3
20260510163054 23 0 0.0 0.0 0.00 0.00 0.00 65 1018.4
20260510161554 22 0 0.0 0.0 0.00 0.00 0.00 64 1018.3
20260510160100 22 0 0.0 0.0 0.00 0.00 0.00 41 1018.4
20260510154554 21 0 0.0 0.0 0.00 0.00 0.00 30 1018.1
20260510153054 20 0 0.0 0.0 0.00 0.00 0.00 20 1018.0
20260510151550 20 0 0.0 0.0 0.00 0.00 0.00 20 1018.0
20260510150056 19 0 0.0 0.0 0.00 0.00 0.00 20 1018.2
20260510144602 18 0 0.0 0.0 0.00 0.00 0.00 21 1018.2
20260510143048 18 0 0.0 0.0 0.00 0.00 0.00 21 1018.4
20260510141556 18 0 0.0 0.0 0.00 0.00 0.00 22 1018.3
20260510140055 17 0 0.0 0.0 0.00 0.00 0.00 22 1018.4
20260510134602 17 0 0.0 0.0 0.00 0.00 0.00 22 1018.2
20260510133049 17 0 0.0 0.0 0.00 0.00 0.00 23 1018.2
20260510131547 16 0 0.0 0.0 0.00 0.00 0.00 23 1018.0
20260510130053 16 0 0.0 0.0 0.00 0.00 0.00 23 1017.9
20260510124559 16 0 0.0 0.0 0.00 0.00 0.00 24 1017.7
20260510123054 16 0 0.0 0.0 0.00 0.00 0.00 24 1017.6
20260510121543 15 0 0.0 0.0 0.00 0.00 0.00 24 1017.2
20260510120046 15 0 0.0 0.0 0.00 0.00 0.00 25 1017.1
20260510114546 14 0 0.0 0.0 0.00 0.00 0.00 26 1016.9
20260510113048 13 0 0.0 0.0 0.00 0.00 0.00 26 1016.6
20260510111549 13 0 0.0 0.0 0.00 0.00 0.00 27 1016.6
20260510110051 13 0 0.0 0.0 0.00 0.00 0.00 28 1016.3
20260510104546 12 0 0.0 0.0 0.00 0.00 0.00 29 1016.0
20260510103057 12 0 0.0 0.0 0.00 0.00 0.00 30 1015.7
20260510101553 12 0 0.0 0.0 0.00 0.00 0.00 31 1015.6
20260510100048 12 0 0.0 0.0 0.00 0.00 0.00 31 1015.5
20260510094546 12 0 0.0 0.0 0.00 0.00 0.00 31 1015.5
20260510093048 12 0 0.0 0.0 0.00 0.00 0.00 31 1015.4
20260510091546 12 0 0.0 0.0 0.00 0.00 0.00 31 1015.6
20260510090052 13 0 0.0 0.0 0.00 0.00 0.00 31 1015.6
20260510084550 13 0 0.0 0.0 0.00 0.00 0.00 31 1015.2
20260510083048 13 0 0.0 0.0 0.00 0.00 0.00 32 1015.0
20260510081556 13 0 0.0 0.0 0.00 0.00 0.00 32 1014.7
20260510080048 13 0 0.0 0.0 0.00 0.00 0.00 32 1014.6
20260510074550 13 0 0.0 0.0 0.00 0.00 0.00 32 1014.6
20260510073055 13 0 0.0 0.0 0.00 0.00 0.00 32 1014.7
20260510071549 13 0 0.0 0.0 0.00 0.00 0.00 32 1014.6
20260510070049 14 0 0.0 0.0 0.00 0.00 0.00 33 1014.6
20260510064547 14 0 0.0 0.0 0.00 0.00 0.00 33 1014.6
20260510063053 14 0 0.0 0.0 0.00 0.00 0.00 33 1014.6
20260510061553 15 0 0.0 0.0 0.00 0.00 0.00 33 1014.6
20260510060047 15 0 0.0 0.0 0.00 0.00 0.00 33 1014.9
20260510054559 15 0 0.0 0.0 0.00 0.00 0.00 34 1014.7
20260510053049 15 0 0.0 0.0 0.00 0.00 0.00 35 1015.0
20260510051554 15 0 0.0 0.0 0.00 0.00 0.00 36 1014.8
20260510050056 15 0 0.0 0.0 0.00 0.00 0.00 36 1014.7
20260510044551 16 0 0.0 0.0 0.00 0.00 0.00 37 1015.0
20260510043055 16 0 0.0 0.0 0.00 0.00 0.00 37 1014.9
20260510041629 16 0 0.0 0.0 0.00 0.00 0.00 38 1015.1
20260510040053 16 0 0.0 0.0 0.00 0.00 0.00 38 1015.0
20260510034555 16 0 0.0 0.0 0.00 0.00 0.00 40 1015.0
20260510033052 16 0 0.0 0.0 0.00 0.00 0.00 41 1015.0
20260510031556 17 0 0.0 0.0 0.00 0.00 0.00 42 1015.0
20260510030052 17 0 0.0 0.0 0.00 0.00 0.00 45 1014.9
20260510024606 17 0 0.0 0.0 0.00 0.00 0.00 47 1014.7
20260510023044 17 0 0.0 0.0 0.00 0.00 0.00 51 1014.6
20260510021553 18 0 0.0 0.0 0.00 0.00 0.00 54 1014.0
20260510020053 18 0 0.0 0.0 0.00 0.00 0.00 58 1013.6
20260510014611 18 0 0.0 0.0 0.00 0.00 0.00 59 1013.4
20260510013101 19 0 0.0 0.0 0.00 0.00 0.00 62 1013.3
20260510011546 20 0 0.0 0.0 0.00 0.00 0.00 64 1013.0
20260510010051 20 0 0.0 0.0 0.00 0.00 0.00 66 1012.8
20260510004550 21 0 0.0 0.0 0.00 0.00 0.00 65 1012.7
20260510003050 21 0 0.0 0.0 0.00 0.00 0.00 66 1012.2
20260510001550 21 0 0.0 0.0 0.00 0.00 0.00 66 1012.2
20260510000054 22 0 0.0 0.0 0.00 0.00 0.00 67 1012.1
20260509234550 22 0 0.0 0.0 0.00 0.00 0.00 68 1012.0
20260509233053 23 0 0.0 0.0 0.00 0.00 0.00 68 1011.7
20260509231603 23 0 0.0 0.0 0.00 0.00 0.00 68 1012.0
20260509230053 23 0 0.0 0.0 0.00 0.00 0.00 65 1011.8